sat.trackr.live / text

‹ back to catalog

STARLINK-35366

NORAD 66512 · 2025-263AD

PAYLOAD ACTIVE UNKNOWN

§ Identity

Operator
Country
US
Launch date
2025-11-15
Launch site
AFETR
Launch vehicle
Mass (kg)
RCS (m²)

Purposes: comms

External: N2YO · Heavens-Above · Gunter

§ Orbital elements

Epoch: 2026-05-25T02:18:33.731136Z

Period
94.27 min
Inclination
43.0004°
Eccentricity
0.0001952
Mean motion
15.27582921 rev/d
Perigee alt
481.7 km
Apogee alt
484.4 km
Semi-major
6,861.2 km
B*
5.0428e-4
RAAN
279.2453°
Arg perigee
285.1402°
Mean anomaly
74.9234°
Rev number
3,058

§ Raw data

STARLINK-353661 66512U 25263AD  26145.09622374  .00013642  00000+0  50428-3 0  99962 66512  43.0004 279.2453 0001952 285.1402  74.9234 15.27582921 30581

JSON: /api/v1/satellites/66512 · /tle

For live sub-satellite position, see the globe view (requires WebGL).

§ Visibility from observer

Set your observer location to see the next 7 days of passes ≥ 10°. The values pass through the URL so the page stays shareable.

No JS? Fill the form by hand. The geolocation button needs JavaScript.